TimePDT,TemperatureF,Dew PointF,Humidity,Sea Level PressureIn,VisibilityMPH,Wind Direction,Wind SpeedMPH,Gust SpeedMPH,PrecipitationIn,Events,Conditions,WindDirDegrees,DateUTC
12:55 AM,52.0,52.0,100,29.95,10.0,East,5.8,-,0.00,,Overcast,90,2012-11-03 07:55:00
1:36 AM,51.8,51.8,100,29.96,2.0,East,5.8,-,0.01,Rain,Light Rain,80,2012-11-03 08:36:00
1:48 AM,51.8,51.8,100,29.96,3.0,East,5.8,-,0.02,Rain,Light Rain,90,2012-11-03 08:48:00
1:55 AM,52.0,52.0,100,29.96,2.0,East,5.8,-,0.03,Rain,Light Rain,80,2012-11-03 08:55:00
2:05 AM,51.8,51.8,100,29.96,3.0,East,5.8,-,0.01,Rain,Light Rain,80,2012-11-03 09:05:00
2:13 AM,51.8,51.8,100,29.96,4.0,East,4.6,-,0.01,Rain,Light Rain,90,2012-11-03 09:13:00
2:55 AM,52.0,52.0,100,29.97,4.0,Calm,Calm,-,0.02,,Overcast,0,2012-11-03 09:55:00
3:55 AM,53.1,53.1,100,29.97,6.0,South,4.6,-,N/A,,Overcast,170,2012-11-03 10:55:00
4:55 AM,54.0,53.1,97,29.99,10.0,South,5.8,-,N/A,,Overcast,180,2012-11-03 11:55:00
5:55 AM,54.0,53.1,97,29.99,10.0,South,10.4,-,N/A,,Overcast,180,2012-11-03 12:55:00
6:28 AM,53.6,53.6,100,29.99,7.0,South,8.1,-,N/A,,Overcast,180,2012-11-03 13:28:00
6:55 AM,54.0,54.0,100,30.00,6.0,South,5.8,-,N/A,,Overcast,180,2012-11-03 13:55:00
7:55 AM,55.0,54.0,96,30.01,4.0,South,10.4,-,N/A,,Overcast,190,2012-11-03 14:55:00
8:39 AM,55.4,53.6,94,30.01,8.0,South,13.8,19.6,N/A,,Overcast,190,2012-11-03 15:39:00
8:55 AM,55.0,54.0,96,30.02,8.0,South,10.4,-,N/A,,Overcast,180,2012-11-03 15:55:00
9:03 AM,55.4,55.4,100,30.03,6.0,South,8.1,-,N/A,,Overcast,190,2012-11-03 16:03:00
9:28 AM,55.4,55.4,100,30.04,6.0,South,11.5,-,N/A,,Overcast,190,2012-11-03 16:28:00
9:40 AM,55.4,55.4,100,30.04,2.5,SSW,11.5,-,0.00,Rain,Light Rain,200,2012-11-03 16:40:00
9:48 AM,55.4,53.6,94,30.04,1.2,SSW,12.7,20.7,0.00,Rain,Light Rain,200,2012-11-03 16:48:00
9:55 AM,55.0,55.0,100,30.04,1.0,SSW,11.5,20.7,0.01,Rain,Light Rain,200,2012-11-03 16:55:00
10:15 AM,55.4,55.4,100,30.04,1.5,South,10.4,20.7,0.00,Rain,Light Rain,190,2012-11-03 17:15:00
10:24 AM,55.4,55.4,100,30.04,1.5,South,11.5,-,0.00,Rain,Light Rain,190,2012-11-03 17:24:00
10:28 AM,55.4,55.4,100,30.05,2.0,SSW,9.2,-,0.00,Rain,Light Rain,200,2012-11-03 17:28:00
10:42 AM,55.4,55.4,100,30.06,3.0,South,12.7,21.9,0.00,,Overcast,190,2012-11-03 17:42:00
10:55 AM,55.0,55.0,100,30.06,2.0,SSW,12.7,17.3,0.00,,Overcast,200,2012-11-03 17:55:00
11:02 AM,55.4,55.4,100,30.06,1.2,South,10.4,-,0.00,Rain,Light Rain,190,2012-11-03 18:02:00
11:19 AM,55.4,55.4,100,30.06,1.5,South,12.7,19.6,0.01,Rain,Light Rain,190,2012-11-03 18:19:00
11:38 AM,55.4,55.4,100,30.06,2.5,South,10.4,18.4,0.01,,Overcast,190,2012-11-03 18:38:00
11:45 AM,55.4,55.4,100,30.06,1.2,South,15.0,-,0.01,Rain,Light Rain,190,2012-11-03 18:45:00
11:53 AM,55.4,55.4,100,30.06,2.0,South,11.5,19.6,0.01,Rain,Light Rain,190,2012-11-03 18:53:00
11:55 AM,55.9,55.0,97,30.06,3.0,South,10.4,19.6,0.01,,Overcast,190,2012-11-03 18:55:00
12:14 PM,55.4,55.4,100,30.07,1.8,South,9.2,20.7,0.00,Rain,Light Rain,190,2012-11-03 19:14:00
12:27 PM,55.4,55.4,100,30.07,3.0,South,11.5,19.6,0.01,Rain,Light Rain,190,2012-11-03 19:27:00
12:55 PM,55.9,55.9,100,30.08,6.0,SSW,11.5,20.7,0.01,Rain,Light Rain,200,2012-11-03 19:55:00
1:10 PM,55.4,55.4,100,30.08,1.8,South,9.2,18.4,0.01,Rain,Rain,190,2012-11-03 20:10:00
1:18 PM,55.4,55.4,100,30.08,2.5,SSW,10.4,20.7,0.01,Rain,Light Rain,200,2012-11-03 20:18:00
1:55 PM,55.9,55.0,97,30.09,3.0,SSW,19.6,26.5,0.03,Rain,Light Rain,210,2012-11-03 20:55:00
2:08 PM,55.4,55.4,100,30.09,1.8,SSW,16.1,24.2,0.01,Rain,Light Rain,200,2012-11-03 21:08:00
2:16 PM,55.4,55.4,100,30.10,2.0,SSW,13.8,25.3,0.01,Rain,Light Rain,200,2012-11-03 21:16:00
2:29 PM,55.4,55.4,100,30.10,6.0,SSW,11.5,24.2,0.01,,Overcast,200,2012-11-03 21:29:00
2:55 PM,55.9,55.0,97,30.10,10.0,SSW,15.0,28.8,0.01,,Overcast,200,2012-11-03 21:55:00
3:55 PM,55.0,55.0,100,30.12,3.0,SSW,13.8,24.2,N/A,,Overcast,200,2012-11-03 22:55:00
4:04 PM,55.4,55.4,100,30.12,2.0,South,15.0,21.9,N/A,,Overcast,190,2012-11-03 23:04:00
4:27 PM,55.4,55.4,100,30.12,4.0,SSW,13.8,-,N/A,,Overcast,200,2012-11-03 23:27:00
4:55 PM,55.0,55.0,100,30.12,9.0,SSW,11.5,19.6,N/A,,Overcast,200,2012-11-03 23:55:00
5:38 PM,55.4,55.4,100,30.13,2.5,SSW,13.8,18.4,N/A,,Overcast,210,2012-11-04 00:38:00
5:47 PM,55.4,55.4,100,30.13,3.0,SSW,11.5,18.4,N/A,,Overcast,210,2012-11-04 00:47:00
5:55 PM,55.0,55.0,100,30.13,5.0,SW,12.7,-,N/A,,Overcast,220,2012-11-04 00:55:00
6:55 PM,55.0,55.0,100,30.14,10.0,SSW,9.2,-,0.00,,Overcast,210,2012-11-04 01:55:00
7:55 PM,55.9,55.0,97,30.14,4.0,SW,5.8,-,0.00,Rain,Light Rain,230,2012-11-04 02:55:00
8:05 PM,55.4,55.4,100,30.14,2.0,SW,3.5,-,0.02,Rain,Light Rain,230,2012-11-04 03:05:00
8:14 PM,55.4,55.4,100,30.13,2.5,SSW,4.6,-,0.03,Rain,Light Rain,200,2012-11-04 03:14:00
8:17 PM,55.4,55.4,100,30.13,3.0,SSW,4.6,-,0.03,Rain,Light Rain,200,2012-11-04 03:17:00
8:32 PM,55.4,55.4,100,30.13,1.8,SSW,5.8,-,0.06,Rain,Rain,210,2012-11-04 03:32:00
8:43 PM,55.4,55.4,100,30.13,2.5,SSW,6.9,-,0.08,Rain,Light Rain,200,2012-11-04 03:43:00
8:52 PM,55.4,55.4,100,30.14,5.0,SSE,3.5,-,0.09,Rain,Light Rain,150,2012-11-04 03:52:00
8:55 PM,55.9,55.9,100,30.14,6.0,SSE,3.5,-,0.09,Rain,Light Rain,150,2012-11-04 03:55:00
9:55 PM,55.9,55.9,100,30.14,6.0,Calm,Calm,-,0.00,,Overcast,0,2012-11-04 04:55:00
10:55 PM,55.0,55.0,100,30.15,10.0,SE,3.5,-,N/A,,Overcast,130,2012-11-04 05:55:00
11:23 PM,55.4,55.4,100,30.16,10.0,Calm,Calm,-,N/A,,Overcast,0,2012-11-04 06:23:00
11:55 PM,55.0,55.0,100,30.15,8.0,Calm,Calm,-,N/A,,Overcast,0,2012-11-04 06:55:00